ATLAS CENTAUR 2 1 00694U 63047A 12136.45846570 .00002878 00000-0 38131-3 0 9030 2 00694 30.3574 275.1563 0609529 162.3774 199.9015 13.96710012422083 THOR AGENA D R/B 1 00733U 64002A 12136.27634416 .00000154 00000-0 75335-4 0 6524 2 00733 98.9906 218.0998 0033733 185.0822 175.0021 14.31492445516283 SL-3 R/B 1 00877U 64053B 12137.01726959 .00000164 00000-0 59684-4 0 9923 2 00877 65.0774 318.2958 0054550 129.9873 230.6034 14.58375874530454 SL-8 R/B 1 02802U 67045B 12136.79379152 .00000185 00000-0 62191-4 0 8862 2 02802 74.0104 23.9539 0067977 165.6693 194.6412 14.42743111360883 SL-8 R/B 1 03230U 68040B 12136.58787116 .00001204 00000-0 14238-3 0 6054 2 03230 74.0367 351.1258 0032524 77.7796 282.7028 14.85505760359053 OAO 2 1 03597U 68110A 12135.88148699 .00000168 00000-0 52798-4 0 9029 2 03597 34.9960 299.4272 0004853 129.3709 230.7411 14.45086251288746 ISIS 1 1 03669U 69009A 12135.85586446 .00000089 00000-0 54849-4 0 4352 2 03669 88.4345 353.7879 1713792 182.6359 176.4638 11.28998343779112 SERT 2 1 04327U 70009A 12135.95267166 .00000032 00000-0 10000-3 0 4844 2 04327 99.1347 312.3522 0005261 107.9858 252.1854 13.58283026 95077 SL-3 R/B 1 04814U 70113B 12136.44062255 .00002831 00000-0 14009-3 0 8901 2 04814 81.1517 67.3064 0036222 259.8087 99.9067 15.16905427251178 SL-3 R/B 1 05118U 71028B 12136.50680720 .00002556 00000-0 17693-3 0 48 2 05118 81.2376 114.4927 0045621 324.1019 35.7142 15.04495497223838 ASTEX 1 1 05560U 71089A 12137.10713106 .00000314 00000-0 87151-4 0 7031 2 05560 92.7109 325.5614 0017224 134.9407 225.3197 14.46593482132388 SL-8 R/B 1 05730U 71119B 12136.56566856 .00007351 00000-0 53320-3 0 1235 2 05730 73.8961 139.7298 0777473 22.5110 340.8244 13.82854836946851 COSMOS 482 DESCENT CRAFT 1 06073U 72023E 12137.02439017 .00019917 34414-5 13160-3 0 9981 2 06073 52.1045 170.0459 2030391 304.9972 62.0500 11.55987039135957 OAO 3 (COPERNICUS) 1 06153U 72065A 12137.23887486 .00000204 00000-0 49448-4 0 568 2 06153 35.0070 152.5835 0007045 46.3608 313.7669 14.56872440109684 ATLAS CENTAUR R/B 1 06155U 72065B 12136.92899418 .00000713 00000-0 12306-3 0 7499 2 06155 35.0048 85.1205 0040123 51.4947 308.9341 14.68724983118336 OPS 8180 (RADCAT) 1 06212U 72076A 12136.42129182 .00124509 00000-0 10101-2 0 6695 2 06212 98.5702 334.4811 0003272 214.1772 145.9724 15.70347505286180 SL-8 R/B 1 07004U 73107B 12135.91001950 .00005632 00000-0 19907-3 0 9755 2 07004 73.9566 325.7206 0380310 296.1984 60.0555 14.81315490956690 SL-8 R/B 1 07338U 74044B 12137.21486778 .00185333 10751-4 57040-3 0 9054 2 07338 82.8624 124.5673 0061212 172.2388 187.9846 15.88496668963309 DELTA 1 R/B 1 08063U 75072B 12136.33178076 .00028252 -27741-6 69116-3 0 2442 2 08063 89.1288 238.9626 0812909 219.2121 134.7380 14.00151098615296 SL-8 R/B 1 08459U 75112B 12136.88647519 .00000169 00000-0 66892-4 0 5260 2 08459 74.0563 280.6054 0016479 197.8928 162.1645 14.36082353907375 SL-3 R/B 1 10114U 77057B 12137.19408846 .00001589 00000-0 10008-3 0 6933 2 10114 97.3784 18.0149 0014538 298.8170 61.1600 15.10479113902441 SL-3 R/B 1 10861U 78045B 12136.53592438 .00019732 00000-0 33029-3 0 9668 2 10861 81.1979 237.7725 0014303 234.9914 124.9993 15.51617143869171 SEASAT 1 1 10967U 78064A 12137.22267959 .00000094 00000-0 69458-4 0 7115 2 10967 108.0042 22.3852 0003170 256.5014 103.5773 14.42498331778586 SL-14 R/B 1 11267U 79011B 12136.53123148 .00000342 00000-0 35082-4 0 7657 2 11267 82.5260 182.4946 0015905 289.8063 70.1442 14.87430408799037 SL-8 R/B 1 11574U 79089B 12136.91426075 .00000205 00000-0 73433-4 0 1610 2 11574 74.0681 47.1641 0015364 66.0120 294.2640 14.39853794709627 SL-14 R/B 1 11672U 80005B 12136.75328241 .00000480 00000-0 51364-4 0 3680 2 11672 82.5167 31.7552 0017922 7.4108 352.7358 14.86481623747174 SL-3 R/B 1 11849U 80051B 12136.76503701 .00005990 00000-0 19793-3 0 7688 2 11849 97.8031 326.6592 0010904 120.9420 239.2896 15.31736698750019 SL-3 R/B 1 11933U 80069B 12136.72799427 .00011987 00000-0 25890-3 0 6305 2 11933 81.2167 205.0449 0019784 128.2140 232.0901 15.44169845744510 COSMOS 1220 1 12054U 80089A 12136.33801596 .00028037 00000-0 68212-3 0 8996 2 12054 64.9682 71.6011 0019798 64.1263 296.1914 15.40671962630621 SL-8 R/B 1 12139U 81003B 12135.95438857 .00007450 00000-0 44252-3 0 6543 2 12139 82.9551 279.8682 0565098 224.1927 131.2867 14.30915300578701 SL-8 R/B 1 12389U 81033B 12136.87980700 .00011098 00000-0 30308-3 0 3305 2 12389 82.9101 96.1853 0337472 242.6322 114.0159 14.95651025594686 SL-3 R/B 1 12465U 81046B 12137.19146825 .00002655 00000-0 17650-3 0 6949 2 12465 81.2267 349.4583 0036429 29.8731 330.4561 15.06308334686977 METEOR PRIRODA 1 12585U 81065A 12136.82637576 .00002843 00000-0 18028-3 0 2215 2 12585 97.3020 151.1985 0019706 26.9527 333.2722 15.09523547680847 SL-3 R/B 1 12904U 81103B 12135.88090830 .00001136 00000-0 88733-4 0 9081 2 12904 81.1818 231.2428 0032542 44.3544 316.0276 14.99959265213557 SL-3 R/B 1 13068U 82013B 12136.88288319 .00001573 00000-0 11862-3 0 8549 2 13068 81.2067 176.2740 0023368 314.4671 45.4641 15.01718731644067 SL-3 R/B 1 13154U 82039B 12137.16924237 .00000912 00000-0 82272-4 0 6291 2 13154 81.1834 161.8479 0042748 200.8052 159.1427 14.93949416625876 COSMOS 1400 1 13402U 82079A 12137.21498290 .00012012 00000-0 32072-3 0 6502 2 13402 81.1270 293.0656 0007116 90.3561 269.8507 15.37959965632086 SL-3 R/B 1 13403U 82079B 12136.26836008 .00001276 00000-0 97618-4 0 18 2 13403 81.1738 229.8783 0036926 259.4644 100.2459 15.00715696617319 SL-3 R/B 1 13819U 83010B 12136.23535432 .00001402 00000-0 90745-4 0 2915 2 13819 81.1089 158.5628 0035936 3.6975 356.4504 15.07030508592936 COSMOS 1484 1 14207U 83075A 12136.71226739 .00034062 00000-0 29405-3 0 2257 2 14207 97.6308 329.8313 0008000 292.4964 67.5423 15.69136148 26292 SL-3 R/B 1 14208U 83075B 12136.20143584 .00001669 00000-0 12275-3 0 4692 2 14208 97.5262 185.8588 0046326 26.9889 333.3696 15.03908886567441 COSMOS 1500 1 14372U 83099A 12137.25239810 .00003146 00000-0 20963-3 0 9773 2 14372 82.5316 4.3755 0014323 358.7750 1.3431 15.06684249556964 SL-8 R/B 1 14484U 83111B 12135.92934904 .00018099 00000-0 47909-3 0 8894 2 14484 82.8379 322.3073 0358170 36.6518 325.8631 14.92502799457498 COSMOS 1536 1 14699U 84013A 12136.54008807 .00001840 00000-0 14749-3 0 4604 2 14699 82.5246 322.1123 0012132 250.1143 109.8774 14.99538509533984 COSMOS 1544 1 14819U 84027A 12137.20894844 .00003327 00000-0 19738-3 0 3627 2 14819 82.4935 74.2507 0020951 31.8400 328.4091 15.10837938533805 SL-14 R/B 1 14820U 84027B 12136.90742370 .00000384 00000-0 44719-4 0 312 2 14820 82.5395 279.8060 0021289 67.2311 293.1149 14.82436176520540 ERBS 1 15354U 84108B 12136.93000267 .00003598 00000-0 17987-3 0 9427 2 15354 56.9895 75.8500 0013009 200.4945 159.5572 15.19838052513470 SL-8 R/B 1 15483U 85006B 12137.22608364 .00000081 00000-0 37104-4 0 6473 2 15483 74.0438 163.4119 0019725 242.7630 117.1513 14.35473479429889 SL-12 R/B(2) 1 15772U 85042D 12136.13148258 -.00000135 00000-0 -40288-4 0 8150 2 15772 71.1046 297.2412 0034088 51.7224 308.6963 14.20833968397350 SL-14 R/B 1 15945U 85069B 12136.90752734 .00000391 00000-0 45365-4 0 140 2 15945 82.5264 71.9747 0018688 294.1183 65.8075 14.82778344445548 SL-3 R/B 1 16111U 85090B 12136.81241398 .00003860 00000-0 16072-3 0 8716 2 16111 97.4619 210.3966 0031144 205.9220 154.0459 15.23916546458768 SL-16 R/B 1 16182U 85097B 12136.04190239 .00000172 00000-0 11131-3 0 7132 2 16182 70.9967 319.0193 0006460 15.5575 344.5746 14.16023823373026 SL-14 R/B 1 16496U 86006B 12136.87270576 .00000356 00000-0 40868-4 0 9298 2 16496 82.5220 309.2097 0021672 77.1665 283.1972 14.82878647421832 SL-14 R/B 1 16792U 86046B 12136.55578492 .00000277 00000-0 31833-4 0 8275 2 16792 82.4809 149.9116 0023235 290.8395 69.0331 14.81999047399487 SL-14 R/B 1 16882U 86055B 12136.63810739 .00000285 00000-0 32871-4 0 8145 2 16882 82.5217 171.9910 0022149 49.3007 311.0125 14.81957823392501 AJISAI (EGS) 1 16908U 86061A 12137.23366345 -.00000083 00000-0 10000-3 0 8233 2 16908 50.0062 127.3789 0011192 46.0129 314.1625 12.44469797840098 COSMOS 1812 1 17295U 87003A 12136.59235595 .00001512 00000-0 10496-3 0 7628 2 17295 82.5218 160.3338 0013422 27.8866 332.3074 15.04806428378474 SL-14 R/B 1 17567U 87024B 12136.54094834 .00000311 00000-0 35664-4 0 7190 2 17567 82.5267 137.2363 0020023 358.8736 1.2429 14.82515230360974 COSMOS 1833 1 17589U 87027A 12136.26593183 -.00000361 00000-0 -16864-3 0 1648 2 17589 70.9121 131.1379 0005977 6.3887 353.7309 14.12777133297753 SL-16 R/B 1 17590U 87027B 12135.40910462 -.00000226 00000-0 -89528-4 0 1208 2 17590 71.0012 105.6591 0007057 258.4443 101.5889 14.16543724300744 SL-14 R/B 1 17912U 87038B 12136.70491221 .00000301 00000-0 35036-4 0 7156 2 17912 82.5028 352.7205 0018936 223.8102 136.1610 14.81815566352391 COSMOS 1844 1 17973U 87041A 12136.23944533 .00000034 00000-0 43549-4 0 1889 2 17973 70.8919 230.7163 0029532 32.7782 327.5174 14.13802748290384 SL-14 R/B 1 18153U 87055B 12136.44764116 .00000375 00000-0 43986-4 0 7042 2 18153 82.5002 48.1742 0024054 81.9612 278.4359 14.82053008342946 COSMOS 1867 1 18187U 87060A 12137.20025316 -.00000034 00000-0 25068-4 0 4627 2 18187 65.0120 28.0371 0013332 271.4367 88.5189 14.30925523298141 SL-14 R/B 1 18749U 88001B 12136.26332997 .00000350 00000-0 41155-4 0 7187 2 18749 82.5126 245.4419 0018635 317.0153 42.9628 14.81993066315037 COSMOS 1933 1 18958U 88020A 12136.91969439 .00001750 00000-0 14523-3 0 6507 2 18958 82.5292 90.5674 0014802 99.7212 260.5666 14.98120519312789 SL-3 R/B 1 19046U 88032B 12137.20976834 .00000789 00000-0 72466-4 0 1944 2 19046 97.7582 190.3125 0036826 133.5455 226.8837 14.97198455294129 SL-16 R/B 1 19120U 88039B 12135.90733961 -.00000220 00000-0 -82464-4 0 4967 2 19120 71.0136 292.6881 0021710 163.4113 196.7743 14.18921898242634 COSMOS 1953 1 19210U 88050A 12136.77506909 .00001563 00000-0 12839-3 0 7618 2 19210 82.5201 26.7173 0017937 90.8559 269.4718 14.98416839298821 SL-8 R/B 1 19257U 88053B 12136.90456693 .00000200 00000-0 76708-4 0 4600 2 19257 74.0484 30.9640 0019974 21.6462 338.5530 14.36640801251835 COSMOS 1975 1 19573U 88093A 12136.56333907 .00001458 00000-0 12382-3 0 5322 2 19573 82.5223 334.6241 0018653 112.8640 247.4561 14.97054328281000 SL-14 R/B 1 19574U 88093B 12136.88652471 .00000357 00000-0 41744-4 0 7029 2 19574 82.5308 81.1279 0023688 115.5420 244.8242 14.82092301274084 SL-16 R/B 1 19650U 88102B 12135.91322228 .00000224 00000-0 13871-3 0 7484 2 19650 70.9934 324.0828 0013453 138.2765 221.9392 14.15579398212869 INTERCOSMOS 24 1 20261U 89080A 12136.59958042 .00000752 00000-0 21715-3 0 7600 2 20261 82.5844 132.6541 1214166 57.1192 314.0909 12.53976754 32822 SL-14 R/B 1 20262U 89080C 12137.14787183 .00000155 00000-0 40585-4 0 2585 2 20262 82.5917 165.3800 1241150 170.0264 192.8146 12.47998910 29869 DELTA 1 R/B 1 20323U 89089B 12136.82163962 .00000167 00000-0 53405-4 0 3588 2 20323 97.0809 354.5941 0073664 162.4054 197.9728 14.47087885185856 DELTA 2 R/B(1) 1 20453U 90008B 12135.63181293 .00002869 00000-0 20735-3 0 3782 2 20453 35.6302 219.7309 0357382 14.6171 346.4571 14.64632070173491 COSMOS 2058 1 20465U 90010A 12137.23867359 .00001500 00000-0 14375-3 0 4538 2 20465 82.4929 227.6473 0019165 53.6722 306.6253 14.92360250207704 SL-14 R/B 1 20466U 90010B 12136.56564688 .00000257 00000-0 30648-4 0 3127 2 20466 82.5001 310.4067 0020588 324.3656 35.6179 14.80222128202442 SL-14 R/B 1 20511U 90018B 12137.26777766 .00000363 00000-0 45962-4 0 3142 2 20511 82.5218 243.0967 0019714 79.7882 280.5553 14.78931919197356 HST 1 20580U 90037B 12137.17414033 .00001860 00000-0 12441-3 0 15 2 20580 28.4717 353.0341 0003418 75.9708 284.1312 15.02467850 9915 SL-16 R/B 1 20625U 90046B 12137.23072779 .00000031 00000-0 40952-4 0 1580 2 20625 70.9972 88.1465 0012624 44.7135 315.5000 14.14445612135108 COSMOS 2084 1 20663U 90055A 12136.52823025 .00002020 00000-0 21318-3 0 4757 2 20663 62.7945 290.2202 0127567 129.5480 231.6967 14.86916558182958 SL-6 R/B(2) 1 20666U 90055D 12136.72194212 .00001222 00000-0 14010-3 0 5442 2 20666 62.7850 215.3673 0103294 148.0310 212.7106 14.87829573184256 SL-8 R/B 1 20775U 90078B 12137.03248960 .00004459 00000-0 25002-3 0 8499 2 20775 82.9299 105.2602 0694120 213.2712 142.2963 14.06281789 85105 SL-8 R/B 1 21088U 91006B 12135.62455309 .00000130 00000-0 11627-3 0 3180 2 21088 82.9391 322.3704 0023774 122.0934 238.2545 13.76832884 69697 OKEAN-3 1 21397U 91039A 12136.17686352 .00001218 00000-0 12962-3 0 6289 2 21397 82.5208 98.8499 0018968 321.4586 38.5276 14.88050203132869 COSMOS 2151 1 21422U 91042A 12136.31938937 .00001001 00000-0 10482-3 0 2547 2 21422 82.5028 211.2499 0016055 14.3327 345.8341 14.88521232131631 SL-14 R/B 1 21423U 91042B 12136.86503661 .00000377 00000-0 48179-4 0 841 2 21423 82.4923 256.8349 0016815 208.9043 151.1241 14.78704131127861 ERS-1 1 21574U 91050A 12137.14080480 .00000383 00000-0 14467-3 0 3389 2 21574 98.2116 114.8763 0034835 115.8938 244.5848 14.36099237 90767 ARIANE 40 R/B 1 21610U 91050F 12136.54764929 .00000326 00000-0 11902-3 0 9160 2 21610 98.7559 133.1290 0004046 74.8299 285.3334 14.39615372 92568 INTERCOSMOS 25 1 21819U 91086A 12135.85993293 .00001871 00000-0 36167-3 0 7389 2 21819 82.5483 97.5851 1545112 71.3947 304.8285 12.00197208888765 SL-14 R/B 1 21820U 91086B 12135.48369137 .00000685 00000-0 13575-3 0 5810 2 21820 82.5599 134.0149 1585314 194.5792 160.3925 11.91400669885137 SL-8 R/B 1 21876U 92008B 12135.85541546 .00000062 00000-0 48436-4 0 485 2 21876 82.9253 58.9043 0034100 181.3317 178.7749 13.75432658 15773 SL-8 R/B 1 21938U 92020B 12136.86721227 .00000156 00000-0 14730-3 0 669 2 21938 82.9244 299.9301 0028950 339.7609 20.2398 13.75097350 7885 SL-16 R/B 1 22220U 92076B 12137.14084895 -.00000070 00000-0 -11022-4 0 7565 2 22220 71.0000 9.7369 0014552 227.4725 132.5164 14.16223094 7694 SL-16 R/B 1 22285U 92093B 12136.49107622 .00000308 00000-0 18411-3 0 7577 2 22285 71.0196 150.8821 0002649 81.0730 279.0688 14.14816506999632 COSMOS 2228 1 22286U 92094A 12136.99612680 .00000947 00000-0 11028-3 0 6923 2 22286 82.5190 321.7671 0022643 149.4319 210.8221 14.84052605 46520 SL-16 R/B 1 22566U 93016B 12136.86872791 .00000120 00000-0 86864-4 0 4984 2 22566 71.0089 7.0249 0008496 79.6680 280.5384 14.14742973988437 COSMOS 2242 1 22626U 93024A 12137.21704554 .00000827 00000-0 95779-4 0 4575 2 22626 82.5225 349.1698 0020740 147.8797 212.3686 14.84180316 30209 SL-16 R/B 1 22803U 93059B 12136.66872296 -.00000132 00000-0 -42152-4 0 7220 2 22803 70.9898 205.2034 0017744 329.1219 30.8883 14.16584676965079 ARIANE 40 R/B 1 22830U 93061H 12136.84499982 .00000176 00000-0 84545-4 0 5978 2 22830 98.7197 95.1979 0010852 325.8464 34.2030 14.30734432972445 COSMOS 2278 1 23087U 94023A 12137.06622639 .00000228 00000-0 14622-3 0 7567 2 23087 71.0525 281.5957 0008859 179.0558 181.0581 14.13459619931914 SL-16 R/B 1 23088U 94023B 12137.21664569 -.00000216 00000-0 -87561-4 0 3796 2 23088 70.9963 221.2270 0001778 8.7681 351.3477 14.14499773932807 SL-16 R/B 1 23343U 94074B 12136.81345192 .00000482 00000-0 78677-4 0 3970 2 23343 98.1693 118.6242 0006070 261.7334 98.3172 14.75428585942662 SL-16 R/B 1 23405U 94077B 12136.57016217 -.00000048 00000-0 00000+0 0 5766 2 23405 70.9805 162.6609 0004734 264.3619 95.6963 14.15008587902585 ERS-2 1 23560U 95021A 12137.20385008 .00003356 00000-0 25418-3 0 3458 2 23560 98.5062 244.1808 0005731 62.1883 297.9921 15.03081217894568 ARIANE 40+ R/B 1 23561U 95021B 12136.89304251 .00000247 00000-0 98958-4 0 1919 2 23561 98.5774 90.0852 0007576 14.8149 345.3256 14.36732713894304 SL-16 R/B 1 23705U 95058B 12135.56643504 .00000311 00000-0 18539-3 0 6923 2 23705 71.0227 330.0719 0014166 252.5090 107.4478 14.14936533854133 SL-16 R/B 1 24298U 96051B 12136.18593325 -.00000092 00000-0 -23614-4 0 9000 2 24298 70.8651 18.1479 0013454 72.4375 287.8212 14.12400012809337 ORBVIEW 2 (SEASTAR) 1 24883U 97037A 12136.39341702 .00000274 00000-0 11709-3 0 7311 2 24883 98.4137 255.8777 0001793 190.2101 169.9044 14.32449258785706 SL-16 R/B 1 25400U 98043G 12137.25995376 -.00000005 00000-0 15306-4 0 890 2 25400 98.2756 144.3380 0010194 353.6695 6.4355 14.25160745720428 SL-16 R/B 1 25407U 98045B 12136.89852565 .00000238 00000-0 14614-3 0 9032 2 25407 71.0058 345.9681 0008073 171.2621 188.8645 14.15571550713190 ISS (ZARYA) 1 25544U 98067A 12137.22090924 .00011335 00000-0 16545-3 0 5636 2 25544 51.6406 282.2467 0010515 321.4531 98.1082 15.56132344773038 SL-8 R/B 1 25723U 99022C 12137.20352875 .00005137 00000-0 24354-3 0 1064 2 25723 48.4375 86.1123 0020507 297.2529 62.6312 15.20620934720880 CZ-4B R/B 1 25732U 99025C 12136.91230936 .00000051 00000-0 46829-4 0 9731 2 25732 98.7943 106.9067 0037784 352.7852 7.2774 14.17309307673379 OKEAN-O 1 25860U 99039A 12136.88454869 .00000497 00000-0 82804-4 0 6270 2 25860 97.9327 100.1954 0001409 47.5001 312.6329 14.74185118689819 SL-16 R/B 1 25861U 99039B 12136.90298156 .00000320 00000-0 52523-4 0 26 2 25861 97.8395 100.9200 0015542 323.6430 36.3723 14.77012657691320 SL-14 R/B 1 26874U 01032B 12136.79987061 .00005798 00000-0 14238-3 0 747 2 26874 82.4796 53.1171 0018607 298.3745 61.5636 15.40252991603580 ENVISAT 1 27386U 02009A 12137.16114184 .00000120 00000-0 54604-4 0 2749 2 27386 98.4740 206.0518 0001108 88.6232 271.5099 14.37505310534094 IDEFIX & ARIANE 42P R/B 1 27422U 02021B 12137.20300653 .00000236 00000-0 11058-3 0 9141 2 27422 98.4045 200.4795 0012346 338.3123 21.7533 14.28740645521320 AQUA 1 27424U 02022A 12136.88977964 .00000621 00000-0 14786-3 0 3022 2 27424 98.1932 77.9532 0001710 61.3003 298.8393 14.57127348533665 CZ-4B R/B 1 27432U 02024C 12135.93416687 .00000109 00000-0 79636-4 0 4453 2 27432 98.7185 99.9935 0049831 272.7013 86.8482 14.13723847516063 JB-3 2 (ZY 2B) 1 27550U 02049A 12137.23643677 .00010631 00000-0 32393-3 0 8528 2 27550 97.0723 132.1200 0007212 7.6878 48.4832 15.34114920531879 MIDORI II (ADEOS-II) 1 27597U 02056A 12137.15990989 .00000138 00000-0 74341-4 0 7271 2 27597 98.3294 173.7289 0001900 53.2865 306.8489 14.26413986490457 H-2A R/B 1 27601U 02056E 12137.24207201 .00000173 00000-0 79937-4 0 5133 2 27601 98.5270 224.6807 0073634 28.3244 332.1912 14.30988670492028 H-2A R/B 1 27700U 03009C 12137.23329297 .00390456 65599-4 81182-3 0 9289 2 27700 96.9816 141.0166 0014486 156.0293 204.1651 15.98905498512268 CZ-4B R/B 1 28059U 03049C 12137.20602122 .00000214 00000-0 64718-4 0 4722 2 28059 98.6685 298.4499 0051444 135.2756 225.2601 14.51720818454020 CZ-2C R/B 1 28222U 04012C 12136.55610375 .00002523 00000-0 20593-3 0 6191 2 28222 97.3503 140.7672 0053487 63.1689 297.4997 14.99152911441134 SL-16 R/B 1 28353U 04021B 12135.95895025 -.00000135 00000-0 -45834-4 0 2243 2 28353 71.0020 16.9626 0004780 166.0790 194.0464 14.13994027409338 CZ-4B R/B 1 28471U 04044B 12136.89816092 .00047062 00000-0 46725-3 0 2900 2 28471 96.9722 132.2247 0058698 62.5928 298.1284 15.63392863422017 CZ-2C R/B 1 28480U 04046B 12135.82501799 .00000109 00000-0 57524-4 0 8614 2 28480 98.0659 342.1347 0142496 321.5194 37.5783 14.25003475389370 ARIANE 5 R/B 1 28499U 04049H 12136.54612238 .00000588 00000-0 83669-4 0 3556 2 28499 98.2975 160.1991 0097028 72.4916 288.6869 14.77770987399270 CZ-2D R/B 1 28738U 05024B 12137.17224420 .00002003 00000-0 15366-3 0 2076 2 28738 97.7128 166.5031 0013565 227.2888 132.7196 15.02892880375909 SUZAKU (ASTRO-EII) 1 28773U 05025A 12136.90888744 .00003102 00000-0 21657-3 0 7617 2 28773 31.4046 3.0719 0005706 221.2365 138.7849 15.03554115376226 ALOS (DAICHI) 1 28931U 06002A 12137.23263464 .00000666 00000-0 14853-3 0 369 2 28931 98.0772 207.1681 0002152 73.4604 286.6868 14.59888869336111 H-2A R/B 1 28932U 06002B 12136.90143052 .00001618 00000-0 18171-3 0 481 2 28932 98.3353 310.0486 0101559 242.0045 117.0865 14.84687355341374 AKARI (ASTRO-F) 1 28939U 06005A 12135.69156823 .00006420 00000-0 36921-3 0 8944 2 28939 98.2650 158.0185 0176267 24.5928 336.3579 15.00599406331642 RESURS-DK 1 1 29228U 06021A 12137.14018650 .00000147 00000-0 19788-4 0 6391 2 29228 69.9342 136.2840 0006881 294.2122 65.8327 14.99394259329300 GENESIS 1 1 29252U 06029A 12136.20851013 .00001906 00000-0 13932-3 0 6130 2 29252 64.5085 191.1752 0051100 245.8979 113.6787 15.05967154320794 CZ-4B R/B 1 29507U 06046C 12136.11977963 .00001329 00000-0 12789-3 0 8360 2 29507 97.7019 129.9458 0043827 12.3287 347.8996 14.93974557302839 SL-8 R/B 1 29659U 06060B 12136.81372314 .00013231 00000-0 32664-3 0 6121 2 29659 98.1340 352.8611 0029882 119.5669 240.8555 15.40197914301879 ATLAS 5 CENTAUR R/B 1 30778U 07006G 12135.82861056 .00010345 00000-0 41634-3 0 3905 2 30778 35.7009 289.3271 0024407 189.5390 170.4876 15.23923939287652 CZ-2C R/B 1 31114U 07010B 12137.03895865 .00000202 00000-0 11439-3 0 3984 2 31114 98.2661 115.3463 0059423 211.7038 148.0538 14.18767284263998 COSMO-SKYMED 1 1 31598U 07023A 12137.22214382 .00000661 00000-0 89552-4 0 4874 2 31598 97.8699 322.9072 0001435 86.9393 273.1982 14.82166547267238 GENESIS 2 1 31789U 07028A 12137.27304543 .00002073 00000-0 15208-3 0 3611 2 31789 64.5094 220.6121 0051441 295.6070 63.9736 15.05535209268135 COSMOS 2428 1 31792U 07029A 12137.04147034 .00000137 00000-0 10000-3 0 4166 2 31792 71.0050 345.8909 0008815 209.2036 312.4906 14.12495290251706 SL-16 R/B 1 31793U 07029B 12135.91773179 -.00000044 00000-0 20201-5 0 4328 2 31793 70.9738 333.8972 0001877 260.3183 99.7725 14.14120594251840 KORONAS-FOTON 1 33504U 09003A 12136.90364378 .00001863 00000-0 12130-3 0 6265 2 33504 82.4750 267.5589 0017152 58.3905 88.5306 15.07259727180780 TIANGONG 1 1 37820U 11053A 12137.21286591 .00045925 00000-0 30468-3 0 7445 2 37820 42.7839 245.6331 0010549 5.0993 72.5108 15.74636394 36150